Torna al catalogo

STARLINK-34965

AttivoComunicazioniSSO
NORAD 65186·PAYLOAD·🇺🇸 United States

Lanciato Aug 14, 2025 da Vandenberg Space Force Base

Loading…

Prossimi Passaggi (prossime 24 ore)

TLE

AggiornatoSource: CelesTrak SupGP

Epoca: Sep 15, 2026, 04:06 UTC

1 65186C 25175N   26258.17131944 -.00003606  00000+0 -11184-3 0  2581
2 65186  97.2846 127.2888 0001667  99.1975 140.5204 15.33466002    17

Traccia STARLINK-34965 in tempo reale con AllMySat

Download on the App Store